Location: Vancouver
(49.2500°N, 123.1330°W)
Time: 06:30:43
(UTC-07:00)

S-56A Canister/Altair - Visible Passes

Search period start: 24 October 2014 00:00
Search period end: 02 November 2014 23:00
Orbit: 633 x 2503 km, 38.9° (Epoch: 20 October)

Date Brightness Start Highest point End Pass type
(mag) Time Alt. Az. Time Alt. Az. Time Alt. Az.
24 Oct 10.6 19:14:01 10° SSW 19:26:09 31° SSE 19:34:19 17° ESE visible
24 Oct 9.9 21:17:12 10° SW 21:31:03 48° SSE 21:31:47 48° SSE visible
24 Oct 10.7 23:23:02 10° WSW 23:29:14 29° WSW 23:29:14 29° WSW visible
25 Oct 10.8 18:41:39 10° SSW 18:53:23 29° SE 19:03:49 11° E visible
25 Oct 9.9 20:44:16 10° SW 20:58:12 47° SSE 21:01:16 42° SE visible
25 Oct 10.4 22:49:50 10° WSW 22:58:44 39° SW 22:58:44 39° SW visible
26 Oct 10.9 18:09:25 10° S 18:20:38 27° SE 18:31:21 10° E visible
26 Oct 10.1 20:11:25 10° SW 20:25:20 46° SSE 20:30:43 34° ESE visible
26 Oct 10.0 22:16:40 10° WSW 22:28:10 48° SSW 22:28:10 48° SSW visible
27 Oct 11.3 00:23:22 10° W 00:25:37 16° W 00:25:37 16° W visible
27 Oct 10.3 19:38:40 10° SW 19:52:26 45° SSE 20:00:07 25° ESE visible
27 Oct 9.9 21:43:33 10° WSW 21:57:34 54° S 21:57:34 54° S visible
27 Oct 11.0 23:50:04 10° W 23:55:01 23° WSW 23:55:01 23° WSW visible
28 Oct 10.5 19:06:01 10° SW 19:19:32 43° SSE 19:29:30 18° E visible
28 Oct 9.8 21:10:30 10° WSW 21:24:55 54° S 21:26:57 51° SSE visible
28 Oct 10.6 23:16:48 10° W 23:24:24 32° WSW 23:24:24 32° WSW visible
29 Oct 10.6 18:33:29 10° SW 18:46:38 41° SSE 18:58:51 11° E visible
29 Oct 10.0 20:37:32 10° WSW 20:52:00 54° S 20:56:18 43° SE visible
29 Oct 10.3 22:43:35 10° W 22:53:45 41° SW 22:53:45 41° SW visible
30 Oct 11.5 00:51:04 10° W 00:51:12 10° W 00:51:12 10° W visible
30 Oct 10.7 18:01:04 10° SSW 18:13:46 38° SSE 18:26:30 10° E visible
30 Oct 10.2 20:04:39 10° WSW 20:19:02 54° S 20:25:39 34° ESE visible
30 Oct 10.1 22:10:25 10° W 22:23:06 49° SSW 22:23:06 49° SSW visible
31 Oct 11.3 00:17:35 10° W 00:20:32 17° W 00:20:32 17° W visible
31 Oct 10.3 19:31:51 10° WSW 19:46:03 53° S 19:54:59 25° ESE visible
31 Oct 10.0 21:37:18 10° W 21:51:37 52° SSW 21:52:26 52° S visible
31 Oct 11.0 23:44:11 10° W 23:49:53 24° WSW 23:49:53 24° WSW visible
01 Nov 10.4 18:59:09 10° SW 19:13:03 52° SSE 19:24:20 17° E visible
01 Nov 10.0 21:04:16 10° W 21:18:43 54° S 21:21:47 48° SSE visible
01 Nov 10.7 23:10:51 10° W 23:19:14 31° WSW 23:19:14 31° WSW visible
02 Nov 10.5 17:26:33 10° SW 17:40:04 50° SSE 17:53:42 10° E visible
02 Nov 10.1 19:31:18 10° WSW 19:45:45 55° S 19:51:09 39° SE visible
02 Nov 10.5 21:37:36 10° W 21:48:35 38° SW 21:48:35 38° SW visible
